sat.trackr.live / text

‹ back to catalog

LEMUR-2-SQUIRRELCOMM

NORAD 60578 · 2024-149DQ

PAYLOAD ACTIVE UNKNOWN

§ Identity

Operator
Country
US
Launch date
2024-08-16
Launch site
AFWTR
Launch vehicle
Mass (kg)
RCS (m²)

Purposes: earth_obs

External: N2YO · Heavens-Above · Gunter

§ Orbital elements

Epoch: 2026-05-25T05:09:55.657728Z

Period
95.56 min
Inclination
97.6713°
Eccentricity
0.0007145
Mean motion
15.06840349 rev/d
Perigee alt
540.9 km
Apogee alt
550.8 km
Semi-major
6,924.0 km
B*
4.1628e-4
RAAN
226.2045°
Arg perigee
123.1592°
Mean anomaly
237.0322°
Rev number
9,694

§ Raw data

LEMUR-2-SQUIRRELCOMM1 60578U 24149DQ  26145.21522752  .00006148  00000+0  41628-3 0  99922 60578  97.6713 226.2045 0007145 123.1592 237.0322 15.06840349 96949

JSON: /api/v1/satellites/60578 · /tle

For live sub-satellite position, see the globe view (requires WebGL).

§ Visibility from observer

Set your observer location to see the next 7 days of passes ≥ 10°. The values pass through the URL so the page stays shareable.

No JS? Fill the form by hand. The geolocation button needs JavaScript.